QPF
0.00 0.00 0.00 0.00 0.00 0.00 0.00 0.00 0.00 0.04 0.04 0.03 0.02 0.02 0.01 0.02 0.02 0.05 0.05 0.07 0.08 0.05
0.00 0.00 0.00 0.00 0.00 0.00 0.00 0.00 0.00 0.01 0.03 0.02 0.01 0.01 0.02 0.02 0.03 0.04 0.06 0.08 0.09 0.07
0.00 0.00 0.00 0.00 0.00 0.00 0.00 0.00 0.00 0.00 0.00 0.00 0.00 0.01 0.02 0.03 0.03 0.07 0.07 0.07 0.09 0.08
0.00 0.00 0.00 0.00 0.00 0.00 0.00 0.00 0.00 0.00 0.00 0.00 0.00 0.01 0.01 0.01 0.02 0.04 0.06 0.07 0.08 0.08
0.00 0.00 0.00 0.00 0.00 0.00 0.00 0.00 0.00 0.00 0.00 0.00 0.00 0.01 0.02 0.03 0.03 0.03 0.02 0.02 0.04 0.04
0.00 0.00 0.00 0.00 0.00 0.00 0.00 0.00 0.00 0.00 0.00 0.00 0.01 0.01 0.03 0.03 0.02 0.02 0.02 0.02 0.02 0.02
0.00 0.00 0.00 0.00 0.00 0.00 0.00 0.00 0.00 0.00 0.00 0.00 0.00 0.00 0.01 0.01 0.01 0.00 0.00 0.00 0.01 0.01
0.00 0.00 0.00 0.00 0.00 0.00 0.00 0.00 0.00 0.00 0.00 0.00 0.00 0.00 0.00 0.00 0.00 0.00 0.00 0.00 0.00 0.01
0.00 0.00 0.00 0.00 0.00 0.00 0.00 0.00 0.00 0.00 0.00 0.00 0.02 0.06 0.02 0.01 0.01 0.01 0.01 0.02 0.03 0.03
0.00 0.00 0.00 0.00 0.00 0.00 0.00 0.00 0.00 0.00 0.01 0.04 0.08 0.05 0.07 0.15 0.14 0.11 0.08 0.06 0.04 0.02
0.00 0.00 0.00 0.00 0.00 0.00 0.00 0.00 0.00 0.00 0.00 0.00 0.01 0.02 0.03 0.10 0.10 0.11 0.13 0.12 0.02 0.00
0.00 0.00 0.00 0.00 0.00 0.00 0.00 0.00 0.00 0.00 0.00 0.00 0.00 0.00 0.00 0.00 0.00 0.00 0.00 0.00 0.00 0.00
0.00 0.00 0.00 0.00 0.00 0.00 0.00 0.00 0.00 0.00 0.00 0.00 0.00 0.00 0.00 0.00 0.00 0.00 0.00 0.00 0.00 0.00
0.00 0.00 0.00 0.00 0.00 0.00 0.00 0.00 0.00 0.00 0.00 0.00 0.00 0.00 0.00 0.00 0.00 0.00 0.00 0.00 0.00 0.00
MSLP
1013.70 1013.69 1013.63 1013.49 1013.28 1013.04 1012.73 1012.40 1012.08 1012.04 1011.99 1012.21 1012.53 1012.67 1013.06 1013.13 1013.11 1013.26 1013.48 1013.63 1014.00 1014.55
1014.25 1014.14 1014.19 1013.83 1013.62 1013.38 1013.04 1012.79 1012.58 1012.37 1012.18 1011.82 1012.11 1012.27 1012.49 1012.80 1012.80 1012.97 1013.06 1013.18 1013.59 1014.15
1014.92 1014.74 1014.56 1014.24 1014.10 1013.96 1013.65 1013.34 1013.14 1012.98 1012.86 1012.66 1012.41 1012.49 1012.53 1012.68 1012.76 1012.73 1012.91 1013.11 1013.43 1014.08
1015.57 1015.43 1015.25 1015.15 1014.98 1014.76 1014.34 1013.91 1013.69 1013.59 1013.49 1013.24 1013.06 1013.06 1013.06 1012.92 1012.94 1013.25 1013.44 1013.76 1014.04 1014.77
1016.01 1016.30 1016.18 1016.11 1015.96 1015.73 1015.36 1014.69 1014.43 1014.29 1014.10 1013.97 1013.94 1013.88 1013.86 1013.90 1013.84 1013.99 1014.44 1015.03 1015.34 1015.69
1016.80 1016.95 1016.84 1016.79 1016.92 1016.50 1016.01 1015.55 1015.31 1015.05 1014.93 1014.75 1014.74 1014.79 1014.80 1014.83 1014.96 1015.01 1015.16 1015.48 1016.18 1016.45
1017.49 1017.36 1017.50 1017.43 1017.29 1017.19 1016.46 1016.21 1016.08 1015.75 1015.77 1015.69 1015.52 1015.45 1015.65 1015.85 1015.86 1015.85 1015.93 1016.18 1016.77 1016.75
1018.05 1018.28 1018.10 1018.05 1017.97 1017.77 1017.15 1016.93 1016.74 1016.38 1016.37 1016.50 1016.43 1016.39 1016.50 1016.78 1017.32 1016.66 1017.47 1017.39 1017.70 1017.39
1018.91 1018.84 1018.51 1018.64 1018.69 1018.50 1018.02 1017.83 1017.59 1017.66 1017.41 1017.23 1017.43 1017.40 1017.59 1017.65 1017.91 1018.04 1018.47 1018.37 1018.88 1017.85
1019.25 1019.20 1019.11 1019.42 1019.24 1019.29 1018.78 1018.75 1018.72 1018.71 1018.64 1018.54 1018.45 1018.33 1018.27 1018.50 1018.67 1019.03 1019.23 1019.27 1019.21 1019.10
1019.57 1019.70 1019.90 1019.86 1019.99 1019.81 1019.55 1019.54 1019.56 1019.79 1019.64 1019.38 1019.29 1019.27 1019.25 1019.40 1019.55 1019.81 1020.00 1019.92 1019.55 1019.34
1019.99 1020.25 1020.49 1020.44 1020.51 1020.47 1020.36 1020.40 1020.47 1020.50 1020.27 1020.07 1019.85 1019.66 1019.71 1019.87 1020.04 1020.22 1020.30 1020.15 1019.87 1020.09
1020.43 1020.63 1020.89 1020.95 1021.00 1021.03 1020.96 1020.92 1020.91 1020.81 1020.55 1020.45 1020.42 1020.21 1020.11 1020.16 1020.33 1020.56 1020.62 1020.58 1020.59 1020.49
1020.84 1021.02 1021.20 1021.27 1021.21 1021.06 1021.02 1020.98 1021.00 1020.98 1020.95 1020.84 1020.78 1020.68 1020.60 1020.60 1020.78 1020.90 1020.92 1020.87 1020.77 1020.63
Thickness
5634 5633 5632 5632 5631 5631 5631 5631 5631 5627 5623 5617 5610 5603 5595 5591 5588 5584 5581 5581 5579 5576
5621 5621 5618 5619 5619 5619 5618 5617 5614 5611 5609 5608 5599 5590 5580 5573 5570 5566 5565 5566 5564 5560
5606 5606 5606 5607 5606 5603 5602 5600 5598 5595 5590 5585 5578 5569 5561 5554 5550 5549 5549 5548 5547 5543
5592 5592 5592 5590 5589 5586 5585 5585 5583 5578 5571 5564 5557 5548 5539 5535 5531 5525 5526 5524 5524 5522
5581 5576 5575 5573 5571 5568 5567 5569 5568 5563 5555 5545 5538 5529 5521 5514 5509 5504 5501 5498 5498 5499
5566 5563 5562 5559 5554 5554 5555 5554 5552 5547 5539 5530 5522 5514 5505 5496 5488 5484 5484 5484 5481 5481
5553 5552 5549 5547 5544 5541 5544 5541 5537 5534 5524 5514 5509 5502 5493 5482 5471 5467 5468 5469 5466 5470
5540 5538 5537 5535 5533 5530 5531 5529 5525 5522 5513 5504 5498 5491 5481 5471 5460 5458 5451 5453 5452 5457
5525 5525 5527 5523 5519 5517 5518 5514 5511 5504 5500 5495 5486 5479 5471 5461 5453 5447 5440 5442 5439 5448
5516 5515 5515 5509 5508 5504 5505 5501 5496 5490 5485 5480 5475 5470 5464 5454 5447 5440 5434 5433 5433 5436
5506 5504 5501 5499 5495 5494 5493 5489 5484 5477 5472 5469 5464 5459 5454 5447 5441 5434 5430 5430 5433 5435
5497 5493 5489 5488 5485 5484 5481 5476 5470 5465 5462 5459 5456 5454 5449 5442 5437 5432 5429 5429 5429 5428
5488 5485 5481 5479 5476 5473 5470 5465 5461 5458 5455 5454 5448 5448 5444 5439 5434 5429 5426 5425 5423 5422
5480 5477 5473 5470 5468 5465 5462 5459 5455 5453 5449 5446 5443 5439 5437 5433 5428 5424 5422 5420 5418 5416